This demonstration page uses our WeatherBlox Daily Observations layout. Learn more.

Left ArrowRight Arrow

41.86663, -103.66717

Hourly Observations for May 10, 2018

Temp ( °F °C ) Dew Point ( °F °C ) Humidity (%) Winds ( mph kmh ) Pressure ( in mb ) Visibility ( mi km ) Precip ( " mm )
12:53 am 00:53 Clear 56 13.3 52 11.1 87 87 ESE 10 17 29.88 1012 10 16 0.00 0.00
1:53 am 01:53 Clear 53 11.7 51 10.6 93 93 ESE 8 13 29.86 1011 10 16 0.00 0.00
2:53 am 02:53 Clear 51 10.6 49 9.4 92 92 ESE 6 9 29.84 1010 10 16 0.00 0.00
3:53 am 03:53 Clear 50 10 48 8.9 93 93 E 6 9 29.84 1010 10 16 0.00 0.00
4:53 am 04:53 Clear 50 10 48 8.9 93 93 N 5 7 29.84 1011 10 16 0.00 0.00
5:53 am 05:53 Sunny 51 10.6 49 9.4 92 92 NE 3 6 29.83 1010 10 16 0.00 0.00
6:53 am 06:53 Sunny 52 11.1 49 9.4 89 89 ENE 6 9 29.84 1010 10 16 0.00 0.00
7:53 am 07:53 Sunny 58 14.4 50 10 75 75 ESE 12 19 29.82 1010 10 16 0.00 0.00
8:53 am 08:53 Sunny 58 14.4 50 10 75 75 SE 9 15 29.82 1010 10 16 0.00 0.00
9:53 am 09:53 Sunny 61 16.1 52 11.1 72 72 SE 9 15 29.80 1009 10 16 0.00 0.00
10:53 am 10:53 Sunny 64 17.8 54 12.2 70 70 ESE 8 13 29.78 1009 10 16 0.00 0.00
11:53 am 11:53 Sunny 69 20.6 56 13.3 63 63 ESE 8 13 29.75 1007 10 16 0.00 0.00
12:53 pm 12:53 Sunny 72 22.2 56 13.3 57 57 VRB 3 6 29.72 1007 10 16 0.00 0.00
1:53 pm 13:53 Sunny 77 25 57 13.9 50 50 N 8 13 29.69 1005 10 16 0.00 0.00
2:53 pm 14:53 Sunny 80 26.7 56 13.3 44 44 N 8 13 29.65 1004 10 16 0.00 0.00
3:53 pm 15:53 Sunny 75 23.9 55 12.8 50 50 NNW 20 31 29.65 1004 10 16 0.00 0.00
4:26 pm 16:26 Partly Cloudy with Nearby Thunderstorms 72 22 54 12 53 53 N 22 35 29.50 999 10 16 0.00 0.00
4:45 pm 16:45 Cloudy with Thunderstorms 70 21.1 56 13.3 61 61 NW 16 26 29.59 1002 10 16 0.00 0.03
4:53 pm 16:53 Cloudy with Thunderstorms 67 19.4 58 14.4 73 73 WNW 16 26 29.75 1008 8 13 0.01 0.25
5:01 pm 17:01 Cloudy with Strong Thunderstorms 64 17.8 60 15.6 87 87 NNW 17 28 29.65 1004 2 3 0.07 1.78
5:08 pm 17:08 Windy with Storms Likely 63 17 61 16 94 94 NNE 31 50 29.56 1001 3 4 0.00 0.00
5:15 pm 17:15 Windy with Storms Likely 65 18.3 60 15.6 84 84 NE 29 46 29.53 1000 10 16 0.16 4.06
5:22 pm 17:22 Partly Cloudy with Nearby Thunderstorms 66 19 N/A N/A NNE 29 46 29.53 1000 10 16 0.00 0.00
5:37 pm 17:37 Sunny 70 21 N/A N/A N 24 39 29.50 999 10 16 0.16 4.06
5:53 pm 17:53 Sunny 68 20 N/A N/A N 31 50 29.61 1003 10 16 0.16 4.06
6:53 pm 18:53 Sunny 64 18 N/A N/A NNE 25 41 29.64 1004 10 16 0.00 0.00
7:53 pm 19:53 Sunny 56 13.3 52 11.1 87 87 NNE 25 41 29.70 1006 10 16 0.00 0.00
8:23 pm 20:23 Mostly Cloudy 54 12.2 51 10.6 90 90 SSW 8 13 29.83 1010 10 16 0.00 0.00
8:42 pm 20:42 Cloudy 53 11.7 50 10 89 89 NE 15 24 29.83 1010 10 16 0.00 0.00
8:53 pm 20:53 Cloudy 53 11.7 50 10 89 89 NE 16 26 29.82 1010 10 16 0.00 0.00
9:53 pm 21:53 Cloudy 51 10.6 49 9.4 92 92 N 7 11 29.82 1010 10 16 0.00 0.00
10:53 pm 22:53 Cloudy 51 10.6 48 8.9 89 89 NE 10 17 29.80 1009 10 16 0.00 0.00
11:53 pm 23:53 Cloudy 50 10 48 8.9 93 93 NE 9 15 29.78 1008 10 16 0.00 0.00

Powered by AerisWeather